Regional Weather Roundup
Issued by NWS Little Rock, AR

Home | Current Version | Previous Version | Graphics & Text | Print | Product List | Glossary On
Versions: 1 2 3 4 5 6 7 8 9 10 11 12 13 14 15 16 17 18 19 20 21 22 23 24 25 26 27 28 29 30 31 32 33 34 35 36 37 38 39 40 41 42 43 44 45 46 47 48 49 50
000
ASUS44 KLZK 301505
RWRLZK

WEATHER ROUNDUP FOR ARKANSAS
NATIONAL WEATHER SERVICE LITTLE ROCK AR
1000 AM CDT SUN APR 30 2017

NOTE: "FAIR" INDICATES FEW OR NO CLOUDS BELOW 12,000 FEET WITH NO
SIGNIFICANT WEATHER AND/OR OBSTRUCTIONS TO VISIBILITY.

ARZ001-003-010-029-301600-
NORTHWEST ARKANSAS

CITY           SKY/WX    TMP DP  RH WIND       PRES   REMARKS
FAYETTEVILLE   CLOUDY    52  51  97 S16       29.63F
FORT SMITH     CLOUDY    56  49  77 SW10      29.66R
HARRISON       CLOUDY    63  62  97 S14       29.62R
BENTONVILLE    CLOUDY    54  46  76 SW16G22   29.53R
ROGERS         LGT RAIN  53  51  93 SW16      29.62S
SILOAM SPGS    CLOUDY    52  45  76 SW20G28   29.63R
HIGHFILL       CLOUDY    52  49  89 SW15G25   29.60S
SPRINGDALE     CLOUDY    54  54 100 SW12G23   29.64S
$$

ARZ004-005-016-301600-
NORTH CENTRAL ARKANSAS

CITY           SKY/WX    TMP DP  RH WIND       PRES   REMARKS
BATESVILLE     CLOUDY    70  66  88 S6        29.66S
FLIPPIN        CLOUDY   N/A N/A N/A SE6       29.59R
MTN HOME       CLOUDY    64  64 100 S8        29.61S
$$

ARZ040-041-301600-
WEST CENTRAL ARKANSAS

CITY           SKY/WX    TMP DP  RH WIND       PRES   REMARKS
MENA           NOT AVBL
$$

ARZ009-017-025-026-028-301600-
NORTHEAST ARKANSAS

CITY           SKY/WX    TMP DP  RH WIND       PRES   REMARKS
JONESBORO      LGT RAIN  71  67  87 S13G21    29.68F
NEWPORT        RAIN      70  68  93 MISG      29.67S
WALNUT RIDGE   CLOUDY    68  64  88 SE15      29.67F
BLYTHEVILLE    LGT RAIN  69  69 100 SE10      29.74F
$$

ARZ022-023-033-042-044-301600-
CENTRAL ARKANSAS

CITY           SKY/WX    TMP DP  RH WIND       PRES   REMARKS
LITTLE ROCK    CLOUDY    62  62 100 S10       29.69S
N LITTLE ROCK    N/A     62  60  93 S9        29.66S
JACKSONVILLE   CLOUDY    62  62 100 S7        29.66F
CONWAY           N/A     64  61  88 SE9       29.63F
SEARCY         CLOUDY    66  66 100 S12       29.69S
CLINTON        CLOUDY    68  66  94 SW6       29.67R
$$

ARZ036-301600-
EAST ARKANSAS

CITY           SKY/WX    TMP DP  RH WIND       PRES   REMARKS
WEST MEMPHIS   LGT RAIN  73  70  90 S24G33    29.69F
$$

ARZ050-053-066-070-073-301600-
SOUTHWEST ARKANSAS

CITY           SKY/WX    TMP DP  RH WIND       PRES   REMARKS
ARKADELPHIA    CLOUDY    59  55  87 SW10      29.75R
CAMDEN         CLOUDY    61  55  82 SW9       29.75R
TEXARKANA      CLOUDY    56  53  90 SW9       29.76S
EL DORADO      CLOUDY    60  57  89 SW9       29.77F
DE QUEEN       CLOUDY    56  52  86 W14G22    29.73R
$$

ARZ056-057-069-301600-
SOUTHEAST ARKANSAS

CITY           SKY/WX    TMP DP  RH WIND       PRES   REMARKS
PINE BLUFF     CLOUDY    64  62  93 SW9       29.70F
STUTTGART      CLOUDY    64  55  72 S9G18     29.70F
MONTICELLO     CLOUDY    64  62  93 W7        29.73F

$$





USA.gov is the U.S. government's official web portal to all federal, state and local government web resources and services.